| time (UTC) | temp F | wind direction | speed MPH | gust MPH | rain 1hr in | rain 24hr in | rain mn in | humidity % | barometer mb |
| 20260902223020 | 64 | 231 | 9.0 | 18.0 | 0.00 | 0.00 | 0.00 | 22 | 940.2 |
| 20260902221555 | 64 | 252 | 14.0 | 19.0 | 0.00 | 0.00 | 0.00 | 21 | 940.2 |
| 20260902220044 | 64 | 244 | 11.0 | 19.0 | 0.00 | 0.00 | 0.00 | 21 | 940.0 |
| 20260902214545 | 65 | 296 | 10.0 | 18.0 | 0.00 | 0.00 | 0.00 | 23 | 939.9 |
| 20260902213009 | 65 | 288 | 11.0 | 17.0 | 0.00 | 0.00 | 0.00 | 22 | 939.8 |
| 20260902211548 | 66 | 251 | 11.0 | 19.0 | 0.00 | 0.00 | 0.00 | 21 | 939.8 |
| 20260902210035 | 67 | 277 | 12.0 | 20.0 | 0.00 | 0.00 | 0.00 | 21 | 939.8 |
| 20260902204517 | 65 | 223 | 11.0 | 18.0 | 0.00 | 0.00 | 0.00 | 22 | 939.7 |
| 20260902203006 | 65 | 265 | 11.0 | 18.0 | 0.00 | 0.00 | 0.00 | 22 | 939.9 |
| 20260902201549 | 65 | 261 | 10.0 | 18.0 | 0.00 | 0.00 | 0.00 | 22 | 939.8 |
| 20260902200027 | 66 | 261 | 11.0 | 18.0 | 0.00 | 0.00 | 0.00 | 23 | 940.1 |
| 20260902194503 | 64 | 286 | 11.0 | 18.0 | 0.00 | 0.00 | 0.00 | 24 | 940.3 |
| 20260902193046 | 64 | 242 | 11.0 | 16.0 | 0.00 | 0.00 | 0.00 | 22 | 940.3 |
| 20260902191522 | 64 | 298 | 11.0 | 17.0 | 0.00 | 0.00 | 0.00 | 22 | 940.4 |
| 20260902190055 | 64 | 250 | 11.0 | 19.0 | 0.00 | 0.00 | 0.00 | 22 | 940.5 |
| 20260902184542 | 65 | 252 | 10.0 | 18.0 | 0.00 | 0.00 | 0.00 | 21 | 940.6 |
| 20260902183015 | 64 | 276 | 12.0 | 21.0 | 0.00 | 0.00 | 0.00 | 23 | 940.8 |
| 20260902181549 | 65 | 281 | 11.0 | 17.0 | 0.00 | 0.00 | 0.00 | 23 | 940.8 |
| 20260902180031 | 64 | 254 | 10.0 | 17.0 | 0.00 | 0.00 | 0.00 | 24 | 940.9 |
| 20260902174506 | 63 | 259 | 11.0 | 19.0 | 0.00 | 0.00 | 0.00 | 23 | 940.9 |
| 20260902173105 | 62 | 246 | 9.0 | 19.0 | 0.00 | 0.00 | 0.00 | 26 | 940.9 |
| 20260902171533 | 61 | 254 | 14.0 | 22.0 | 0.00 | 0.00 | 0.00 | 26 | 940.7 |
| 20260902170007 | 62 | 237 | 13.0 | 21.0 | 0.00 | 0.00 | 0.00 | 25 | 940.6 |
| 20260902164540 | 62 | 250 | 13.0 | 19.0 | 0.00 | 0.00 | 0.00 | 24 | 940.5 |
| 20260902163027 | 61 | 279 | 14.0 | 20.0 | 0.00 | 0.00 | 0.00 | 26 | 940.2 |
| 20260902161510 | 60 | 280 | 15.0 | 27.0 | 0.00 | 0.00 | 0.00 | 27 | 940.2 |
| 20260902154542 | 60 | 243 | 16.0 | 25.0 | 0.00 | 0.00 | 0.00 | 27 | 939.7 |
| 20260902153030 | 65 | 220 | 8.0 | 17.0 | 0.00 | 0.00 | 0.00 | 35 | 939.2 |
| 20260902151555 | 64 | 135 | 8.0 | 19.0 | 0.00 | 0.00 | 0.00 | 41 | 939.3 |
| 20260902151501 | 64 | 161 | 8.0 | 19.0 | 0.00 | 0.00 | 0.00 | 41 | 939.4 |
| 20260902150039 | 63 | 184 | 7.0 | 18.0 | 0.00 | 0.00 | 0.00 | 40 | 939.1 |
| 20260902144518 | 62 | 147 | 6.0 | 12.0 | 0.00 | 0.00 | 0.00 | 46 | 939.0 |
| 20260902143058 | 61 | 152 | 6.0 | 12.0 | 0.00 | 0.00 | 0.00 | 52 | 939.0 |
| 20260902143002 | 61 | 114 | 5.0 | 12.0 | 0.00 | 0.00 | 0.00 | 52 | 938.9 |
| 20260902141556 | 61 | 196 | 6.0 | 12.0 | 0.00 | 0.00 | 0.00 | 56 | 938.8 |
| 20260902140022 | 60 | 142 | 9.0 | 16.0 | 0.00 | 0.00 | 0.00 | 57 | 938.7 |
| 20260902134508 | 59 | 139 | 7.0 | 14.0 | 0.00 | 0.00 | 0.00 | 59 | 938.7 |
| 20260902133057 | 58 | 127 | 9.0 | 17.0 | 0.00 | 0.00 | 0.00 | 60 | 938.7 |
| 20260902131549 | 58 | 132 | 10.0 | 15.0 | 0.00 | 0.00 | 0.00 | 62 | 938.8 |
| 20260902130029 | 58 | 119 | 9.0 | 17.0 | 0.00 | 0.00 | 0.00 | 62 | 938.8 |
| 20260902124509 | 59 | 109 | 10.0 | 15.0 | 0.00 | 0.00 | 0.00 | 61 | 938.8 |
| 20260902123137 | 59 | 149 | 8.0 | 14.0 | 0.00 | 0.00 | 0.00 | 61 | 938.7 |
| 20260902121534 | 59 | 117 | 6.0 | 12.0 | 0.00 | 0.00 | 0.00 | 61 | 938.7 |
| 20260902120028 | 59 | 132 | 7.0 | 13.0 | 0.00 | 0.00 | 0.00 | 60 | 938.9 |
| 20260902114511 | 60 | 150 | 8.0 | 13.0 | 0.00 | 0.00 | 0.00 | 60 | 938.8 |
| 20260902113046 | 60 | 102 | 10.0 | 15.0 | 0.00 | 0.00 | 0.00 | 60 | 938.8 |
| 20260902111533 | 59 | 136 | 7.0 | 16.0 | 0.00 | 0.00 | 0.00 | 59 | 938.9 |
| 20260902110012 | 59 | 111 | 9.0 | 16.0 | 0.00 | 0.00 | 0.00 | 59 | 938.9 |
| 20260902104557 | 59 | 129 | 7.0 | 12.0 | 0.00 | 0.00 | 0.00 | 59 | 938.9 |
| 20260902103042 | 60 | 110 | 9.0 | 16.0 | 0.00 | 0.00 | 0.00 | 57 | 938.9 |
| 20260902101529 | 60 | 114 | 8.0 | 14.0 | 0.00 | 0.00 | 0.00 | 57 | 939.0 |
| 20260902100019 | 60 | 98 | 7.0 | 12.0 | 0.00 | 0.00 | 0.00 | 57 | 939.1 |
| 20260902094558 | 60 | 103 | 7.0 | 11.0 | 0.00 | 0.00 | 0.00 | 57 | 939.2 |
| 20260902093044 | 59 | 86 | 8.0 | 10.0 | 0.00 | 0.00 | 0.00 | 59 | 939.3 |
| 20260902091525 | 59 | 96 | 7.0 | 10.0 | 0.00 | 0.00 | 0.00 | 59 | 939.4 |
| 20260902090010 | 60 | 82 | 8.0 | 11.0 | 0.00 | 0.00 | 0.00 | 57 | 939.6 |
| 20260902084549 | 60 | 111 | 9.0 | 14.0 | 0.00 | 0.00 | 0.00 | 56 | 939.7 |
| 20260902083028 | 60 | 95 | 9.0 | 14.0 | 0.00 | 0.00 | 0.00 | 55 | 939.7 |
| 20260902081510 | 61 | 109 | 9.0 | 15.0 | 0.00 | 0.00 | 0.00 | 55 | 939.9 |
| 20260902080052 | 61 | 99 | 9.0 | 15.0 | 0.00 | 0.00 | 0.00 | 55 | 939.9 |
| 20260902074535 | 61 | 116 | 8.0 | 14.0 | 0.00 | 0.00 | 0.00 | 56 | 939.9 |
| 20260902073012 | 61 | 109 | 11.0 | 15.0 | 0.00 | 0.00 | 0.00 | 55 | 939.9 |
| 20260902071600 | 62 | 101 | 11.0 | 17.0 | 0.00 | 0.00 | 0.00 | 55 | 939.8 |
| 20260902071502 | 62 | 95 | 11.0 | 17.0 | 0.00 | 0.00 | 0.00 | 55 | 939.9 |
| 20260902070043 | 61 | 111 | 9.0 | 14.0 | 0.00 | 0.00 | 0.00 | 58 | 939.9 |
| 20260902064534 | 62 | 105 | 8.0 | 14.0 | 0.00 | 0.00 | 0.00 | 56 | 940.0 |
| 20260902063105 | 62 | 94 | 7.0 | 13.0 | 0.00 | 0.00 | 0.00 | 55 | 939.9 |
| 20260902063003 | 62 | 121 | 7.0 | 13.0 | 0.00 | 0.00 | 0.00 | 55 | 940.0 |
| 20260902060022 | 62 | 90 | 9.0 | 12.0 | 0.00 | 0.00 | 0.00 | 55 | 939.9 |
| 20260902054547 | 62 | 105 | 7.0 | 13.0 | 0.00 | 0.00 | 0.00 | 55 | 940.0 |
| 20260902053035 | 63 | 84 | 9.0 | 15.0 | 0.00 | 0.00 | 0.00 | 54 | 940.0 |
| 20260902051519 | 63 | 92 | 8.0 | 13.0 | 0.00 | 0.00 | 0.00 | 53 | 940.1 |
| 20260902050007 | 63 | 93 | 10.0 | 14.0 | 0.00 | 0.00 | 0.00 | 53 | 940.1 |
| 20260902044541 | 63 | 87 | 8.0 | 12.0 | 0.00 | 0.00 | 0.00 | 54 | 940.2 |
| 20260902043033 | 63 | 105 | 8.0 | 13.0 | 0.00 | 0.00 | 0.00 | 53 | 940.2 |
| 20260902041533 | 63 | 129 | 9.0 | 14.0 | 0.00 | 0.00 | 0.00 | 54 | 940.4 |
| 20260902040053 | 63 | 113 | 9.0 | 15.0 | 0.00 | 0.00 | 0.00 | 56 | 940.4 |
| 20260902034539 | 63 | 130 | 8.0 | 15.0 | 0.00 | 0.00 | 0.00 | 58 | 940.4 |
| 20260902033023 | 63 | 114 | 8.0 | 12.0 | 0.00 | 0.00 | 0.00 | 60 | 940.3 |
| 20260902031511 | 63 | 107 | 8.0 | 11.0 | 0.00 | 0.00 | 0.00 | 60 | 940.1 |
| 20260902030053 | 63 | 128 | 7.0 | 10.0 | 0.00 | 0.00 | 0.00 | 60 | 940.1 |
| 20260902024539 | 63 | 100 | 8.0 | 13.0 | 0.00 | 0.00 | 0.00 | 58 | 940.0 |
| 20260902023027 | 63 | 98 | 8.0 | 10.0 | 0.00 | 0.00 | 0.00 | 59 | 940.0 |
| 20260902021514 | 63 | 80 | 6.0 | 8.0 | 0.00 | 0.00 | 0.00 | 57 | 940.1 |
| 20260902020057 | 64 | 88 | 5.0 | 8.0 | 0.00 | 0.00 | 0.00 | 54 | 940.2 |
| 20260902014539 | 65 | 107 | 4.0 | 7.0 | 0.00 | 0.00 | 0.00 | 53 | 940.2 |
| 20260902013034 | 65 | 158 | 2.0 | 8.0 | 0.00 | 0.00 | 0.00 | 52 | 940.2 |
| 20260902011517 | 66 | 203 | 4.0 | 7.0 | 0.00 | 0.00 | 0.00 | 51 | 940.3 |
| 20260902010052 | 66 | 121 | 4.0 | 9.0 | 0.00 | 0.00 | 0.00 | 51 | 940.5 |
| 20260902004536 | 67 | 90 | 2.0 | 8.0 | 0.00 | 0.00 | 0.00 | 54 | 940.7 |
| 20260902003018 | 67 | 109 | 5.0 | 9.0 | 0.00 | 0.00 | 0.00 | 54 | 940.9 |
| 20260902001514 | 67 | 79 | 8.0 | 17.0 | 0.00 | 0.00 | 0.00 | 50 | 940.9 |
| 20260902000054 | 67 | 65 | 7.0 | 17.0 | 0.00 | 0.00 | 0.00 | 51 | 940.9 |
| 20260901234530 | 67 | 119 | 15.0 | 23.0 | 0.00 | 0.00 | 0.00 | 54 | 941.3 |
| 20260901233016 | 67 | 186 | 8.0 | 18.0 | 0.00 | 0.00 | 0.00 | 51 | 941.0 |
| 20260901231600 | 66 | 163 | 9.0 | 16.0 | 0.00 | 0.00 | 0.00 | 55 | 941.0 |
| 20260901231502 | 67 | 144 | 10.0 | 16.0 | 0.00 | 0.00 | 0.00 | 55 | 940.9 |
| 20260901230051 | 66 | 121 | 3.0 | 7.0 | 0.00 | 0.00 | 0.00 | 60 | 940.9 |
| 20260901224523 | 64 | 144 | 3.0 | 8.0 | 0.00 | 0.00 | 0.00 | 64 | 941.3 |